GPS BIIR-13 (PRN 02)

Last updated on Sat Sep 12 2026 00:03:23 GMT+0000 (Coordinated Universal Time)

1 28474U 04045A 26254.14304954 -.00000079 00000+0 00000+0 0 9992 2 28474 55.0798 321.4298 0172011 318.4975 101.9612 2.00559594160151
UTC large
Height (km)
Speed (km/s)
/
Latitude / Longitude
Inclination (degrees)
Orbital Period (minutes)
Azimuth
Elevation
Range (km)
Doppler Factor

Next 0 passes for location: London (51.5072 / 0.1276)

No passes found over London.
GPS BIIR-13 (PRN 02)